Location: Unspecified
(0.0000°N, 0.0000°E)
Time: 15:22:17
(UTC+02:00)

Cosmos 1295 Rocket - Visible Passes

Search period start: 23 August 2014 00:00
Search period end: 02 September 2014 00:00
Orbit: 945 x 994 km, 82.9° (Epoch: 22 August)

Date Brightness Start Highest point End Pass type
(mag) Time Alt. Az. Time Alt. Az. Time Alt. Az.
23 Aug 7.6 06:56:07 10° ESE 06:58:17 12° E 07:00:28 10° ENE visible
24 Aug 6.8 07:16:43 10° SSE 07:21:45 27° E 07:26:45 10° NE visible
24 Aug 5.4 20:19:45 10° NNW 20:25:55 57° W 20:32:06 10° S visible
25 Aug 6.8 20:44:10 10° NW 20:49:22 27° W 20:54:35 10° SSW visible
26 Aug 7.6 21:10:28 10° WNW 21:12:50 12° W 21:15:13 10° WSW visible
27 Aug 7.2 06:43:01 10° SE 06:47:10 19° E 06:51:19 10° NE visible
28 Aug 5.9 07:04:57 10° SSE 07:10:37 41° E 07:16:16 10° NNE visible
29 Aug 4.5 07:27:59 10° S 07:34:04 87° E 07:40:10 10° N visible
29 Aug 7.4 20:34:11 10° NW 20:38:17 18° W 20:42:23 10° SW visible
30 Aug 7.4 06:09:56 10° ESE 06:12:35 13° E 06:15:14 10° ENE visible
31 Aug 6.4 06:30:53 10° SSE 06:36:02 29° E 06:41:12 10° NE visible
01 Sep 5.0 06:53:29 10° S 06:59:29 63° E 07:05:30 10° NNE visible
